EW5648 Weather Reports


time (UTC)temp
F
wind
direction
speed
knots
gust
knots
rain 1hr
in
rain 24hr
in
rain mn
in
humidity
%
barometer
mb
20260505102033 55 0.0 0.0 0.00 0.00 0.00 86 1022.3
20260505101025 55 107 0.0 1.7 0.00 0.00 0.00 86 1022.3
20260505100023 55 0.0 0.0 0.00 0.00 0.00 85 1022.3
20260505095027 55 0.0 0.0 0.00 0.01 0.00 85 1022.3
20260505094018 55 0.0 0.0 0.00 0.01 0.00 86 1022.4
20260505093025 55 0.0 0.0 0.00 0.01 0.00 85 1022.3
20260505092034 55 0.0 0.0 0.00 0.01 0.00 86 1022.2
20260505091046 55 0.0 0.0 0.00 0.04 0.00 86 1022.3
20260505090017 56 0.0 0.0 0.00 0.04 0.00 85 1022.2
20260505085020 56 0.0 0.0 0.00 0.05 0.00 84 1022.1
20260505084023 56 104 0.0 1.7 0.00 0.05 0.00 84 1021.9
20260505083022 56 121 0.0 1.7 0.00 0.05 0.00 84 1021.9
20260505082129 56 90 0.0 1.7 0.00 0.05 0.00 83 1021.8
20260505081026 56 82 0.0 1.7 0.00 0.05 0.00 83 1021.7
20260505080035 56 55 0.0 1.7 0.00 0.05 0.00 82 1021.6
20260505075025 57 113 0.0 1.7 0.00 0.05 0.00 82 1021.5
20260505074018 57 0.0 0.0 0.00 0.05 0.00 80 1021.4
20260505073025 57 0.0 0.0 0.00 0.05 0.00 80 1021.3
20260505072019 58 0.0 0.0 0.00 0.05 0.00 80 1021.2
20260505071025 58 0.0 0.0 0.00 0.05 0.00 78 1021.1
20260505070034 58 0.0 0.0 0.00 0.05 0.00 77 1021.0
20260505065026 59 0.0 0.0 0.00 0.05 0.00 76 1020.8
20260505064017 59 0.0 0.0 0.00 0.05 0.00 75 1020.7
20260505063049 59 74 0.0 1.7 0.00 0.05 0.00 73 1020.7
20260505062019 59 0.0 0.0 0.00 0.05 0.00 73 1020.7
20260505061025 59 0.0 0.0 0.00 0.05 0.00 73 1020.7
20260505060021 59 3 0.9 4.3 0.00 0.05 0.00 71 1020.6
20260505055019 59 1 2.6 4.3 0.00 0.05 0.00 71 1020.4
20260505054026 59 1 2.6 4.3 0.00 0.05 0.00 71 1020.3
20260505053031 59 1 2.6 4.3 0.00 0.05 0.00 71 1020.2
20260505052106 59 1 2.6 4.3 0.00 0.05 0.00 71 1020.1
20260505051030 59 1 2.6 4.3 0.00 0.05 0.00 71 1020.1
20260505041047 59 272 0.0 1.7 0.00 0.05 0.00 72 1019.7
20260505040050 59 272 0.0 1.7 0.00 0.05 0.00 72 1019.7
20260505035044 59 267 0.0 1.7 0.00 0.05 0.00 72 1019.7
20260505034053 59 287 0.0 1.7 0.00 0.05 0.00 72 1019.7
20260505033025 59 287 0.9 4.3 0.00 0.05 0.00 70 1019.6
20260505032034 59 269 0.9 1.7 0.00 0.05 0.00 71 1019.5
20260505031021 59 303 1.7 4.3 0.00 0.05 0.00 71 1019.5
20260505030024 58 261 0.9 1.7 0.00 0.05 0.00 74 1019.6
20260505025111 58 241 2.6 6.1 0.00 0.05 0.00 74 1019.5
20260505024039 59 277 0.9 4.3 0.00 0.05 0.00 75 1019.5
20260505023107 59 275 2.6 4.3 0.00 0.05 0.00 74 1019.6
20260505022032 59 260 0.9 4.3 0.00 0.05 0.00 73 1019.7
20260505021041 58 249 0.9 1.7 0.00 0.05 0.00 74 1019.8
20260505020031 58 262 2.6 6.1 0.00 0.05 0.00 75 1020.0
20260505015025 58 266 1.7 4.3 0.00 0.05 0.00 76 1020.1
20260505014018 58 247 0.0 1.7 0.00 0.05 0.00 78 1020.0
20260505013027 57 228 1.7 4.3 0.00 0.05 0.00 81 1020.1
20260505012031 56 0.0 0.0 0.00 0.05 0.00 82 1020.1
20260505011018 56 265 0.9 1.7 0.00 0.05 0.00 83 1020.1
20260505010021 56 259 0.9 1.7 0.00 0.05 0.00 85 1020.0
20260505005038 57 256 0.9 4.3 0.00 0.05 0.00 84 1020.0
20260505004023 57 274 0.0 1.7 0.00 0.05 0.00 82 1019.8
20260505003041 57 240 1.7 6.1 0.00 0.05 0.00 83 1019.8
20260505002027 57 332 0.9 1.7 0.00 0.05 0.00 82 1019.7
20260505001032 56 260 0.0 1.7 0.00 0.05 0.00 83 1019.7
20260505000031 56 295 3.5 6.1 0.00 0.05 0.00 83 1019.7
20260504235133 56 288 0.9 1.7 0.00 0.05 0.00 85 1019.6
20260504234022 56 288 0.9 1.7 0.00 0.05 0.00 85 1019.6
20260504233030 56 337 0.9 1.7 0.00 0.05 0.00 85 1019.6
20260504232021 55 0.0 0.0 0.00 0.05 0.00 89 1019.5
20260504231025 55 0.0 0.0 0.00 0.05 0.00 89 1019.5
20260504230030 55 0.0 0.0 0.00 0.05 0.00 89 1019.4
20260504225030 55 312 0.0 1.7 0.00 0.05 0.00 89 1019.2
20260504224031 55 252 0.0 1.7 0.00 0.05 0.00 89 1019.2
20260504223032 54 252 0.0 1.7 0.00 0.05 0.00 90 1019.0
20260504222032 54 252 0.0 1.7 0.00 0.05 0.00 90 1018.8
20260504221034 54 252 0.0 1.7 0.00 0.05 0.00 90 1018.6
20260504220019 54 250 0.9 4.3 0.00 0.05 0.00 90 1018.5
20260504215025 54 269 0.9 6.1 0.00 0.05 0.00 91 1018.3
20260504214103 54 12 0.0 1.7 0.00 0.05 0.00 92 1018.0
20260504213115 53 203 0.0 1.7 0.00 0.05 0.00 92 1017.8
20260504212032 53 269 0.9 4.3 0.00 0.05 0.00 93 1017.7
20260504211026 53 255 0.0 1.7 0.00 0.05 0.00 94 1017.5
20260504210039 53 247 0.0 1.7 0.00 0.05 0.00 93 1017.2
20260504205025 54 262 0.0 1.7 0.00 0.05 0.00 93 1017.2
20260504204033 54 280 0.9 4.3 0.00 0.05 0.00 93 1017.0
20260504203028 55 260 0.9 4.3 0.00 0.05 0.00 92 1016.9
20260504202034 55 253 2.6 10.4 0.00 0.05 0.00 88 1016.6
20260504201026 55 267 0.0 1.7 0.00 0.05 0.00 86 1016.2
20260504200034 55 254 0.0 1.7 0.00 0.05 0.00 86 1016.2
20260504195024 55 0.0 0.0 0.00 0.05 0.00 86 1016.1
20260504194035 55 246 0.9 4.3 0.00 0.05 0.00 86 1016.2
20260504193026 55 264 0.0 1.7 0.00 0.05 0.00 86 1016.0
20260504192033 55 294 0.9 4.3 0.00 0.05 0.00 88 1015.9
20260504191026 55 307 0.0 1.7 0.00 0.05 0.00 89 1015.9
20260504190033 55 199 0.0 1.7 0.00 0.05 0.00 89 1015.7
20260504185026 55 118 0.0 1.7 0.00 0.05 0.00 89 1015.5
20260504184019 55 101 0.0 1.7 0.00 0.05 0.00 89 1015.6
20260504183026 55 10 0.0 1.7 0.00 0.05 0.00 89 1015.5
20260504182033 55 64 0.9 4.3 0.00 0.05 0.00 89 1015.3
20260504181025 55 7 0.0 1.7 0.00 0.05 0.00 88 1015.2
20260504180032 56 314 0.0 1.7 0.00 0.05 0.00 86 1015.1
20260504175025 56 308 0.9 4.3 0.00 0.05 0.00 85 1015.1
20260504174032 56 297 1.7 6.1 0.00 0.05 0.00 84 1015.0
20260504173024 56 310 0.0 1.7 0.00 0.05 0.00 84 1014.9
20260504172031 56 56 0.0 1.7 0.00 0.05 0.00 83 1014.8
20260504171024 56 277 0.0 4.3 0.00 0.05 0.00 83 1014.8
20260504151031 57 354 1.7 8.7 0.00 0.05 0.00 84 1014.1
20260504141035 57 322 0.9 6.1 0.00 0.05 0.00 85 1013.7